#timestamp,LO_Frequency,Hit,StdDev 
1539399615.7,286046999.1,N
1539399635.5,286046997.1,N
1539399655.4,286046996.9,N
1539399675.2,286046999.6,N
1539399695.0,286046996.6,N
1539399695.9,286046996.6,N
1539399715.8,286046996.5,N
1539399735.6,286046999.0,N
1539399755.5,286046999.1,N
1539399775.3,286046999.3,N
1539399795.1,286046996.8,N
1539399815.9,286046997.7,N
1539399835.7,286046997.4,N
1539399855.6,286046999.6,N
1539399875.4,286046996.9,N
1539399895.2,286046996.5,N
1539399915.1,286046996.8,N
1539399916.0,286046996.8,N
1539399935.8,286046999.3,N
1539399955.6,286046996.6,N
1539399975.5,286046997.0,N
1539399995.3,286046997.0,N
1539400015.2,286046995.0,Y
1539400035.9,286046999.5,P
1539400055.7,286046995.3,P
1539400075.6,286046995.1,N
1539400095.4,286046997.7,N
1539400115.3,286046995.8,N
1539400135.1,286046997.7,N
1539400136.0,286046997.7,N
1539400155.8,286047001.1,N
1539400175.7,286046998.3,N
1539400195.5,286046999.1,N
1539400215.3,286046999.1,N
1539400235.2,286046997.1,N
1539400255.0,286046996.5,N
1539400255.9,286046996.5,N
1539400275.8,286046997.2,N
1539400295.6,286046997.8,N
1539400315.4,286046997.3,N
1539400335.3,286046999.4,N
1539400355.1,286046996.6,N
1539400375.9,286046997.3,N
1539400395.7,286046997.7,N
1539400415.5,286046999.5,N
1539400435.4,286046996.5,N
1539400455.2,286046996.7,N
1539400475.0,286046997.4,N
1539400475.9,286046997.4,N
1539400495.8,286046994.9,Y
1539400515.6,286046999.2,P
1539400535.5,286046996.7,P
1539400555.3,286046998.8,N
1539400575.1,286046998.4,N
1539400595.9,286047001.2,N
1539400615.7,286046998.8,N
1539400635.5,286046998.7,N
1539400655.4,286046998.2,N
1539400675.2,286046998.5,N
1539400695.1,286046998.8,N
1539400696.0,286046998.8,N
1539400715.8,286046998.8,N
1539400735.7,286046998.8,N
1539400755.6,286046998.3,N
1539400775.4,286046998.7,N
1539400795.3,286046997.2,Y
1539400815.1,286047000.8,P
1539400816.0,286047000.8,N
1539400835.8,286047000.7,N
1539400855.7,286046998.3,N
1539400875.5,286046998.2,N
1539400895.3,286046998.5,N
1539400915.2,286047000.7,N
1539400935.0,286046998.5,N
1539400935.9,286046998.5,N
1539400955.8,286046999.4,N
1539400975.6,286046999.4,N
1539400995.4,286047000.7,N
1539401015.3,286047001.1,N
1539401035.1,286047000.9,N
1539401055.8,286047001.9,N
1539401075.7,286047002.3,N
1539401095.5,286046999.9,N
1539401115.3,286047000.0,N
1539401135.1,286047002.0,N
1539401136.0,286047002.0,N
1539401155.8,286047001.6,N
1539401175.7,286047002.8,N
1539401195.5,286047000.3,N
1539401215.3,286046998.2,N
1539401235.2,286047001.2,N
1539401255.0,286047000.0,N
1539401255.9,286047000.0,N
1539401275.8,286046999.7,N
1539401295.6,286047000.1,N
1539401315.4,286047002.5,N
1539401335.3,286047001.7,N
1539401355.1,286047002.8,N
1539401375.8,286047002.4,N
1539401395.7,286046999.9,N
1539401415.5,286046999.8,N
1539401435.4,286047000.3,N
1539401455.2,286047000.0,N
1539401475.0,286047000.8,N
1539401475.9,286047000.8,N
1539401495.8,286047001.6,N
1539401515.6,286047002.3,N
1539401535.4,286047001.8,N
1539401555.3,286047002.2,N
1539401575.1,286047002.6,N
1539401595.9,286046999.7,N
1539401615.7,286047001.9,N
1539401635.5,286047000.1,N
1539401655.4,286047001.8,N
1539401675.2,286047004.1,Y
1539401695.1,286047002.4,P
1539401696.0,286047002.4,P
1539401715.8,286047002.5,P
1539401735.6,286047004.0,Y
1539401755.5,286047001.0,P
1539401775.3,286047001.0,N
1539401795.4,286046998.1,P
1539401815.3,286046998.5,N
1539401835.1,286046998.4,N
1539401855.9,286047001.2,N
1539401875.7,286046999.4,N
1539401895.5,286046998.7,N
1539401915.4,286046998.6,N
1539401935.2,286046998.8,N
1539401955.1,286046999.0,N
1539401956.0,286046999.0,N
1539401975.8,286046998.2,N
1539401995.6,286046998.6,N
1539402015.5,286046998.6,N
1539402035.3,286046998.8,N
1539402055.2,286046998.2,N
1539402075.9,286046998.8,N
1539402095.7,286046999.1,N
1539402115.6,286046999.2,N
1539402135.4,286046999.2,N
1539402155.2,286046998.8,N
1539402175.1,286046998.9,N
1539402176.0,286046998.9,N
1539402195.8,286046996.6,Y
1539402215.7,286046999.6,P
1539402235.5,286046998.4,P
1539402255.3,286046998.1,P
1539402275.2,286046998.5,N
1539402295.0,286046998.6,N
1539402295.9,286046998.6,N
1539402315.7,286046998.7,N
1539402335.6,286047001.1,N
1539402355.4,286047001.2,N
1539402375.3,286047001.2,N
1539402395.1,286046998.5,N
1539402415.9,286047001.0,N
1539402435.7,286046998.3,N
1539402455.5,286046998.4,N
1539402475.4,286047000.3,N
1539402495.2,286047000.8,N
1539402515.0,286047000.0,N
1539402515.9,286047000.0,N
1539402535.8,286047000.5,N
1539402555.6,286047000.9,N
1539402575.5,286046998.2,N
1539402595.3,286046998.4,N
1539402615.1,286046999.9,N
1539402635.9,286047000.5,N
1539402655.7,286047002.7,N
1539402675.6,286047001.0,N
1539402695.4,286047000.7,N
1539402715.2,286047001.0,N
1539402735.1,286047000.3,N
1539402736.0,286047000.3,N
1539402755.8,286047001.9,N
1539402775.6,286047000.3,N
1539402795.5,286047000.1,N
1539402815.3,286047002.4,N
1539402835.2,286047000.3,N
1539402855.9,286046999.7,N
1539402875.7,286047002.1,N
1539402895.6,286047000.1,N
1539402915.4,286047000.4,N
1539402935.2,286046999.7,N
1539402955.1,286047002.8,N
1539402956.0,286047002.8,N
1539402975.8,286047002.3,N
1539402995.7,286047000.0,N
1539403015.5,286047002.1,N
1539403035.3,286046999.7,N
1539403055.2,286047002.1,N
1539403075.0,286047000.5,N
1539403075.9,286047000.5,N
1539403095.8,286046999.7,N
1539403115.6,286047002.2,N
1539403135.4,286047002.1,N
1539403155.3,286047002.5,N
1539403175.1,286047002.8,N
1539403195.8,286047002.6,N
